Powrót do katalogu

KUIPER-00059

AktywnyŁącznośćLEO
NORAD 64519·PAYLOAD·🇺🇸 United States

Wystrzelony Jun 23, 2025 z Cape Canaveral Space Force Station

Loading…

Następne Przeloty (najbliższe 24 godziny)

TLE

ŚwieżeSource: CelesTrak SupGP

Epoka: Sep 14, 2026, 21:11 UTC

1 64519C 25134V   26257.88311343 -.00022029  00000+0 -28839-2 0  2578
2 64519  51.8982 103.9709 0000548 109.1335   1.6018 14.79949546    13

Śledź KUIPER-00059 w czasie rzeczywistym z AllMySat

Download on the App Store